Weather History for Pisa, Italy

Change the Weather History Date:

Tuesday, December 31, 2013

  Actual Average Record
Temperature  
Mean Temperature 43 °F -  
Max Temperature 54 °F 52 °F 60 °F (2008)
Min Temperature 32 °F 36 °F 26 °F (1999)
Degree Days  
Heating Degree Days 22    
Moisture  
Dew Point 37 °F    
Average Humidity 86    
Maximum Humidity 100    
Minimum Humidity 49    
Precipitation  
Precipitation 0.00 in 0.10 in - ()
Sea Level Pressure  
Sea Level Pressure 30.17 in    
Wind  
Wind Speed 2 mph ()    
Max Wind Speed 6 mph    
Max Gust Speed -    
Visibility 8.2 miles    
Events Fog    
Averages and records for this station are not official NWS values.
T = Trace of Precipitation, MM = Missing Value Source: Averaged Metar Reports

Daily Weather History Graph

Daily Weather History Graph

Search for Another Location

Airport:

Trip Planner

Search our weather history database for the weather conditions in past years. The results will help you decide how hot, cold, wet, or windy it might be!

Date:

Astronomy

Dec. 31, 2013 Rise Set
Actual Time 7:51 AM CET 4:51 PM CET
Civil Twilight 7:19 AM CET 5:23 PM CET
Nautical Twilight 6:43 AM CET 6:00 PM CET
Astronomical Twilight 6:08 AM CET 6:34 PM CET
Moon 6:26 AM CET (12/31) 4:10 PM CET (12/31)
Length of Visible Light 10h 04m
Length of Day
8h 59m
Waning Crescent, 2% of the Moon is Illuminated
Dec 31
Waning Crescent
Jan 1
New
Jan 8
First Quarter
Jan 16
Full
Jan 24
Last Quarter

Hourly Weather History & Observations

Time (CET) Temp. Windchill Dew Point Humidity Pressure Visibility Wind Dir Wind Speed Gust Speed Precip Events Conditions
12:15 AM 39.2 °F - 37.4 °F 93% 30.21 in 6.2 mi East 2.3 mph - N/A   Partly Cloudy
12:45 AM 39.2 °F - 37.4 °F 93% 30.21 in 6.2 mi NNW 2.3 mph - N/A   Partly Cloudy
1:00 AM 39 °F - 38 °F 94% 30.24 in 6 mi NNW 2.3 mph - -   Scattered Clouds
1:15 AM 39.2 °F 37.0 °F 37.4 °F 93% 30.21 in 6.2 mi North 3.5 mph - N/A   Partly Cloudy
1:45 AM 39.2 °F - 37.4 °F 93% 30.21 in 6.2 mi East 2.3 mph - N/A   Partly Cloudy
2:15 AM 37.4 °F - 37.4 °F 100% 30.21 in 6.2 mi East 2.3 mph - N/A   Partly Cloudy
2:45 AM 37.4 °F - 35.6 °F 93% 30.21 in - SSE 2.3 mph - N/A   Clear
3:15 AM 37.4 °F - 35.6 °F 93% 30.21 in - SE 2.3 mph - N/A   Clear
3:45 AM 35.6 °F - 33.8 °F 93% 30.21 in - ESE 2.3 mph - N/A   Clear
4:00 AM 36 °F - 34 °F 91% 30.22 in 6 mi ESE 2.3 mph - -  
4:15 AM 35.6 °F - 33.8 °F 93% 30.18 in - SSE 1.2 mph - N/A   Clear
4:45 AM 35.6 °F - 33.8 °F 93% 30.18 in - South 1.2 mph - N/A   Clear
5:15 AM 35.6 °F - 33.8 °F 93% 30.18 in - SSE 2.3 mph - N/A   Clear
5:45 AM 33.8 °F 30.8 °F 33.8 °F 100% 30.18 in - ENE 3.5 mph - N/A   Clear
6:15 AM 33.8 °F 29.6 °F 32.0 °F 93% 30.18 in - NE 4.6 mph - N/A   Clear
6:45 AM 33.8 °F 30.8 °F 32.0 °F 93% 30.18 in - ESE 3.5 mph - N/A   Clear
7:00 AM 35 °F - 34 °F 92% 30.21 in 6 mi ESE 3.5 mph - -  
7:15 AM 33.8 °F 28.6 °F 32.0 °F 93% 30.18 in - East 5.8 mph - N/A   Clear
7:45 AM 33.8 °F - 32.0 °F 93% 30.18 in - ESE 2.3 mph - N/A   Clear
8:15 AM 33.8 °F 29.6 °F 32.0 °F 93% 30.18 in - East 4.6 mph - N/A   Clear
8:45 AM 35.6 °F 30.7 °F 33.8 °F 93% 30.18 in - ESE 5.8 mph - N/A   Clear
9:15 AM 35.6 °F - 33.8 °F 93% 30.18 in - Variable 1.2 mph - N/A   Clear
9:45 AM 35.6 °F - 33.8 °F 93% 30.18 in - East 2.3 mph - N/A   Clear
10:00 AM 36 °F - 34 °F 91% 30.21 in 19 mi East 2.3 mph - -   Scattered Clouds
10:15 AM 37.4 °F - 35.6 °F 93% 30.18 in - ESE 2.3 mph - N/A   Clear
10:45 AM 39.2 °F - 37.4 °F 93% 30.18 in - Variable 1.2 mph - N/A   Clear
11:15 AM 39.2 °F - 37.4 °F 93% 30.18 in - South 1.2 mph - N/A   Clear
11:45 AM 41.0 °F - 39.2 °F 93% 30.18 in - Variable 2.3 mph - N/A   Clear
12:15 PM 44.6 °F 43.1 °F 39.2 °F 81% 30.18 in - East 3.5 mph - N/A   Clear
12:45 PM 46.4 °F 45.2 °F 37.4 °F 71% 30.15 in - ESE 3.5 mph - N/A   Clear
1:00 PM 47 °F - 37 °F 59% 30.17 in 19 mi ESE 3.5 mph - -   Partly Cloudy
1:15 PM 48.2 °F - 37.4 °F 66% 30.15 in - ESE 1.2 mph - N/A   Clear
1:45 PM 50.0 °F - 37.4 °F 62% 30.15 in - East 1.2 mph - N/A   Clear
2:15 PM 51.8 °F - 39.2 °F 62% 30.15 in - Variable 1.2 mph - N/A   Clear
2:45 PM 51.8 °F - 37.4 °F 58% 30.15 in - Variable 2.3 mph - N/A   Clear
3:15 PM 53.6 °F - 39.2 °F 58% 30.12 in - Variable 1.2 mph - N/A   Clear
3:45 PM 53.6 °F - 41.0 °F 62% 30.12 in - Variable 1.2 mph - N/A   Clear
4:00 PM 54 °F - 40 °F 49% 30.15 in 19 mi 1.2 mph - -  
4:15 PM 53.6 °F - 41.0 °F 62% 30.12 in - Variable 1.2 mph - N/A   Clear
4:45 PM 50.0 °F - 41.0 °F 71% 30.12 in - West 2.3 mph - N/A   Clear
5:15 PM 48.2 °F - 41.0 °F 76% 30.12 in - WNW 2.3 mph - N/A   Clear
5:45 PM 46.4 °F - 41.0 °F 81% 30.12 in - NW 1.2 mph - N/A   Clear
6:15 PM 44.6 °F - 41.0 °F 87% 30.12 in - Variable 1.2 mph - N/A   Clear
6:45 PM 41.0 °F - 39.2 °F 93% 30.12 in - Variable 1.2 mph - N/A   Clear
7:00 PM 42 °F - 39 °F 85% 30.15 in 9 mi 1.2 mph - -  
7:15 PM 41.0 °F - 39.2 °F 93% 30.12 in - East 2.3 mph - N/A   Clear
7:45 PM 39.2 °F - 37.4 °F 93% 30.12 in 6.2 mi ESE 2.3 mph - N/A Fog Shallow Fog
8:15 PM 39.2 °F - 37.4 °F 93% 30.12 in 6.2 mi South 2.3 mph - N/A Fog Shallow Fog
8:45 PM 39.2 °F - 37.4 °F 93% 30.12 in 6.2 mi South 2.3 mph - N/A Fog Shallow Fog
9:15 PM 39.2 °F 37.0 °F 37.4 °F 93% 30.12 in 6.2 mi ESE 3.5 mph - N/A Fog Shallow Fog
9:45 PM 37.4 °F - 35.6 °F 93% 30.15 in 6.2 mi East 2.3 mph - N/A Fog Shallow Fog
10:00 PM 38 °F - 36 °F 92% 30.17 in 6 mi East 2.3 mph - - Fog Patches of Fog
10:15 PM 37.4 °F 33.8 °F 35.6 °F 93% 30.15 in - ESE 4.6 mph - N/A   Clear
10:45 PM 37.4 °F - 35.6 °F 93% 30.15 in 6.2 mi ESE 2.3 mph - N/A Fog Shallow Fog
11:15 PM 37.4 °F - 35.6 °F 93% 30.15 in 6.2 mi ESE 2.3 mph - N/A Fog Shallow Fog
11:45 PM 37.4 °F 33.8 °F 35.6 °F 93% 30.12 in - ESE 4.6 mph - N/A   Clear